Satellite: ISS
Catalog number: 25544
Epoch time:      10169.01628935
Element set:     342
Inclination:      051.6478 deg
RA of node:       226.3639 deg
Eccentricity:    0.0009002
Arg of perigee:   337.9392 deg
Mean anomaly:     086.0930 deg
Mean motion:   15.71871920 rev/day
Decay rate:      7.434e-05 rev/day^2
Epoch rev:           66360
Checksum:              303

Satellite: CO-58
Catalog number: 28895
Epoch time:      10167.70728776
Element set:     609
Inclination:      098.0163 deg
RA of node:       052.2010 deg
Eccentricity:    0.0016574
Arg of perigee:   288.4665 deg
Mean anomaly:     071.4761 deg
Mean motion:   14.59902138 rev/day
Decay rate:       3.49e-06 rev/day^2
Epoch rev:           24691
Checksum:              334

Satellite: FALCON
Catalog number: 30776
Epoch time:      10167.94915607
Element set:    0869
Inclination:      035.4341 deg
RA of node:       045.7357 deg
Eccentricity:    0.0001255
Arg of perigee:   239.7126 deg
Mean anomaly:     120.3554 deg
Mean motion:   15.03686878 rev/day
Decay rate:       3.75e-06 rev/day^2
Epoch rev:           18002
Checksum:              303

Satellite: MAST
Catalog number: 31126
Epoch time:      10167.60229238
Element set:    0891
Inclination:      097.9366 deg
RA of node:       209.6440 deg
Eccentricity:    0.0093701
Arg of perigee:   227.5533 deg
Mean anomaly:     131.7702 deg
Mean motion:   14.53594460 rev/day
Decay rate:        1.9e-07 rev/day^2
Epoch rev:           16797
Checksum:              302

Satellite: CAPE1
Catalog number: 31130
Epoch time:      10167.72226271
Element set:    0913
Inclination:      097.9372 deg
RA of node:       207.1747 deg
Eccentricity:    0.0101128
Arg of perigee:   234.6241 deg
Mean anomaly:     124.5421 deg
Mean motion:   14.52186200 rev/day
Decay rate:       -7.1e-07 rev/day^2
Epoch rev:           16759
Checksum:              261

Satellite: COMPASS
Catalog number: 32787
Epoch time:      10167.15582752
Element set:    0699
Inclination:      097.8926 deg
RA of node:       231.9272 deg
Eccentricity:    0.0014826
Arg of perigee:   291.7834 deg
Mean anomaly:     068.1836 deg
Mean motion:   14.81889162 rev/day
Decay rate:       6.29e-06 rev/day^2
Epoch rev:           11534
Checksum:              343

Satellite: AAUSAT2
Catalog number: 32788
Epoch time:      10167.76662798
Element set:    0694
Inclination:      097.8918 deg
RA of node:       232.6568 deg
Eccentricity:    0.0014522
Arg of perigee:   290.3679 deg
Mean anomaly:     069.5974 deg
Mean motion:   14.82031610 rev/day
Decay rate:       3.27e-06 rev/day^2
Epoch rev:           11544
Checksum:              341

Satellite: DO-64
Catalog number: 32789
Epoch time:      10167.70807595
Element set:    0710
Inclination:      097.9008 deg
RA of node:       233.0718 deg
Eccentricity:    0.0014389
Arg of perigee:   287.8305 deg
Mean anomaly:     072.1306 deg
Mean motion:   14.82175495 rev/day
Decay rate:       5.25e-06 rev/day^2
Epoch rev:           11543
Checksum:              319

Satellite: CO-66
Catalog number: 32791
Epoch time:      10167.17760339
Element set:    0693
Inclination:      097.8967 deg
RA of node:       231.9653 deg
Eccentricity:    0.0014993
Arg of perigee:   289.9639 deg
Mean anomaly:     069.9930 deg
Mean motion:   14.81670525 rev/day
Decay rate:        9.0e-08 rev/day^2
Epoch rev:           11530
Checksum:              356

Satellite: RS-30
Catalog number: 32953
Epoch time:      10168.69276781
Element set:     793
Inclination:      082.5012 deg
RA of node:       029.3649 deg
Eccentricity:    0.0019808
Arg of perigee:   099.5096 deg
Mean anomaly:     260.8222 deg
Mean motion:   12.43005490 rev/day
Decay rate:        1.0e-07 rev/day^2
Epoch rev:            9380
Checksum:              303

Satellite: TACSAT-3
Catalog number: 35001
Epoch time:      10167.52797451
Element set:    0320
Inclination:      040.4545 deg
RA of node:       218.0737 deg
Eccentricity:    0.0021568
Arg of perigee:   356.9422 deg
Mean anomaly:     003.1259 deg
Mean motion:   15.41799269 rev/day
Decay rate:      2.541e-05 rev/day^2
Epoch rev:           06053
Checksum:              283

Satellite: PHARMSAT
Catalog number: 35002
Epoch time:      10167.54673035
Element set:    0301
Inclination:      040.4682 deg
RA of node:       215.9560 deg
Eccentricity:    0.0024779
Arg of perigee:   001.3421 deg
Mean anomaly:     358.7457 deg
Mean motion:   15.42325663 rev/day
Decay rate:      2.317e-05 rev/day^2
Epoch rev:           06055
Checksum:              267

Satellite: HAWKSAT1
Catalog number: 35003
Epoch time:      10167.52166111
Element set:     317
Inclination:      040.4598 deg
RA of node:       210.9353 deg
Eccentricity:    0.0022423
Arg of perigee:   015.1839 deg
Mean anomaly:     344.9649 deg
Mean motion:   15.45413543 rev/day
Decay rate:      4.977e-05 rev/day^2
Epoch rev:            6061
Checksum:              276

Satellite: CP6
Catalog number: 35004
Epoch time:      10167.51896916
Element set:     313
Inclination:      040.4601 deg
RA of node:       210.0296 deg
Eccentricity:    0.0021372
Arg of perigee:   018.3141 deg
Mean anomaly:     341.8443 deg
Mean motion:   15.46239686 rev/day
Decay rate:      6.047e-05 rev/day^2
Epoch rev:            6061
Checksum:              268

